Regional Weather Roundup
Issued by NWS Grand Forks, ND

Home | Current Version | Previous Version | Graphics & Text | Print | Product List | Glossary On
Versions: 1 2 3 4 5 6 7 8 9 10 11 12 13 14 15 16 17 18 19 20 21 22 23 24 25 26 27 28 29 30 31 32 33 34 35 36 37 38 39 40 41 42 43 44 45 46 47 48 49 50
000
ASUS43 KFGF 280510
RWRFGF
PRAIRIE TO PINES  WEATHER ROUNDUP
NATIONAL WEATHER SERVICE EASTERN NORTH DAKOTA/GRAND FORKS ND
1200 AM CDT TUE MAR 28 2017

 **SATELLITE DATA USED TO AUGMENT SKY COVER AT AUTOMATED STATIONS**
 *****  WEATHER ACROSS EASTERN NORTH DAKOTA  *****

CITY           SKY/WX    TMP DP  RH WIND       PRES   REMARKS
GRAND FORKS    LGT RAIN  35  35 100 NW8       30.09R FOG
GRAND FRKS AFB MOCLDY    36  36 100 N6        30.09S FOG
DEVILS LAKE    CLOUDY    34  33  96 NE6       30.08
FARGO          FOG       38  38 100 N9        30.06R VSB 1/4
WAHPETON ARPT    N/A     41  36  81 N9        30.04S
$$

 ***** WEATHER ACROSS CENTRAL AND WESTERN NORTH DAKOTA  *****

CITY           SKY/WX    TMP DP  RH WIND       PRES   REMARKS
BISMARCK       FAIR      40  34  79 NE7       30.01R
MINOT          FOG       37  36  96 NE6       30.04S VSB 1/4
JAMESTOWN      FAIR      35  34  96 NE8       30.03R FOG
MINOT AFB      NOT AVBL
GARRISON         N/A     36  36 100 E12       30.00S
WILLISTON      LGT RAIN  40  37  89 NE10      30.01S
DICKINSON      FAIR      38  28  67 E5        29.95R
HETTINGER      FAIR      41  31  67 SE5       29.99R
$$

 *****  OTHER AIRPORT OBSERVATIONS IN OUR AREA  *****

CITY           SKY/WX    TMP DP  RH WIND       PRES   REMARKS
WALHALLA       NOT AVBL
GRAFTON AIRPOR MOCLDY    34  34 100 N9        30.11R
VALLEY CITY AR FOG       34  34 100 NE8       30.07R VSB<1/4
CANDO          NOT AVBL
CAVALIER APRT  CLOUDY    34  32  93 N8        30.11R
GWINNER        CLEAR     37  37 100 MISG      30.05R FOG
SHEYENNE NWR     N/A     39  39 100 NE3       29.95S
ROLLA          CLOUDY    34  34 100 NE9       30.09S
 ***** THE ABOVE OBSERVATIONS ARE NON NWS ARE NOT QUALITY
       CONTROLLED AND MAY MIS-REPORT RAIN FOR SNOW...
$$

  *****  WEATHER ACROSS NORTHERN MINNESOTA  *****

CITY           SKY/WX    TMP DP  RH WIND       PRES   REMARKS
FLAG ISLAND    FAIR      39  30  70 NW5       30.07R
WARROAD        FAIR      39  32  75 N5        30.08R
ROSEAU         MOCLDY    37  32  81 CALM      30.08R
HALLOCK        FAIR      34  32  93 N8        30.09S
THF RVR FALLS  CLOUDY   N/A N/A N/A NW6       30.08R
BAUDETTE       CLOUDY    38  29  70 N7        30.05R
WASKISH        MOCLDY    39  30  70 CALM      30.05R
CROOKSTON      FOG       36  36 100 N9        30.08S VSB 3/4
GREENBUSH NDAW   N/A     34  32  93 N3          N/A
$$
  *****  WEATHER ACROSS CENTRAL AND WEST MINNESOTA  *****

CITY           SKY/WX    TMP DP  RH WIND       PRES   REMARKS
FOSSTON        MOCLDY    34  32  93 N3        30.07R
BEMIDJI        FAIR      32  26  80 N3        30.04R
PARK RAPIDS    FAIR      32  24  72 W5        30.04R
ELBOW LAKE     FAIR      39  35  86 CALM      30.04R
WADENA         FAIR      34  30  86 CALM      30.03R
DETROIT LAKES  FAIR      37  36  93 NW3       30.05R FOG
MOORHEAD       FOG       36  36 100 N8        30.07R VSB 1/4
FERGUS FALLS   FAIR      39  36  87 NE6       30.07R
MORRIS MN      FAIR      41  34  75 CALM      30.03R
STAPLES        FAIR      34  28  80 CALM      30.03R
$$
  *****  WEATHER ELSEWHERE ACROSS MINNESOTA  *****

CITY           SKY/WX    TMP DP  RH WIND       PRES   REMARKS
DULUTH         FAIR      33  29  85 CALM      30.03R
INTRNTL FALLS  CLOUDY    42  26  53 NE5       30.04R
ELY            FAIR      28  23  80 CALM      30.04R
CLOQUET        FAIR      28  27  93 CALM      30.03R
WHEATON        FAIR      37  34  87 CALM      30.06R
BRAINERD       FAIR      30  27  88 CALM      30.03R
HIBBING        FAIR      27  25  92 CALM      30.02R
ALEXANDRIA     FAIR      39  33  79 CALM      30.04R
SAINT CLOUD    FAIR      33  32  96 CALM      30.03R
MINNEAPOLIS    FAIR      44  35  70 CALM      30.02S
$$

  *****  WEATHER ACROSS SOUTH DAKOTA  *****

CITY           SKY/WX    TMP DP  RH WIND       PRES   REMARKS
SIOUX FALLS    FAIR      44  38  79 S5        30.03R
BROOKINGS      FAIR      42  36  79 CALM      30.02R
WATERTOWN      CLOUDY    45  37  73 CALM      30.02R
HURON          FAIR      42  37  82 E8        30.01R
SISSETON         N/A     35  32  88 N3        30.03R
ABERDEEN       CLOUDY    41  32  70 NE3       30.03R
MITCHELL       FAIR      40  35  83 SE6       30.01R
PIERRE         FAIR      40  31  70 E6        29.97R
MOBRIDGE       FAIR      42  33  70 E5        29.98R
RAPID CITY     FAIR      44  34  67 NE8       29.94R
$$

  *****  SOME WEATHER IN NEARBY STATES *****

CITY           SKY/WX    TMP DP  RH WIND       PRES   REMARKS
GLASGOW MT     MOCLDY    42  34  73 E12       29.95R
GREAT FALLS MT MOCLDY    40  34  79 SW9       30.01R
CHEYENNE WY    CLOUDY    42  38  85 CALM      29.88R
SCOTTSBLUFF NE LGT RAIN  51  41  68 N10       29.87R
OMAHA NE       MOCLDY    40  35  83 NE3       30.03R
DES MOINES IA  CLOUDY    48  41  76 N3        30.01S
DAVENPORT IA   CLOUDY    48  45  89 N6        29.98S
CHICAGO IL     CLOUDY    42  36  79 N7        29.98S
EAU CLAIRE WI  FAIR      32  31  96 CALM      30.03R
LA CROSSE WI   CLOUDY    43  39  86 CALM      30.01S
$$

  *****  SOME NATIONAL WEATHER *****

CITY           SKY/WX    TMP DP  RH WIND       PRES   REMARKS
LA GUARDIA NY  CLOUDY    42  39  89 NE10      29.99F
RALEIGH NC     MOCLDY    67  54  63 SW12      29.99R
ATLANTA GA     CLOUDY    65  60  84 W6        29.96F
NEW ORLEANS LA FAIR      71  69  93 S8        29.96S
OKLAHOMA CITY  FAIR      54  47  77 NE13      29.93S
ALBUQUERQUE NM MOCLDY    53  37  54 N6        29.87S
SALT LAKE CITY FAIR      42  39  89 N9        29.98R
LOS ANGELES CA FAIR      65  36  34 NW25G38   29.97S
BOISE ID       FAIR      43  32  65 NW8       30.16R
SEATTLE WA     LGT RAIN  46  43  89 S15       30.25R
$$

*** WEATHER ACROSS MANITOBA...SASKATCHEWAN AND ONTARIO ***
                ***ONTARIO***

CITY           SKY/WX    TMP DP  RH WIND       PRES   REMARKS
GERALDTON      MOCLDY    27  21  80 NW5       30.02R WCI  21
THUNDER BAY    MOCLDY    28  28 100 W3        30.04R
SIOUX LOOKOUT  PTCLDY    30  27  86 N3        30.06R
TORONTO        CLOUDY    52  48  87 NW8       29.88F
BIG TROUT LK   FLURRIES  18  10  73 N6        30.17R WCI   9
PICKLE LAKE    NOT AVBL
DRYDEN         MOCLDY    37  28  70 NE3       30.05R
KENORA         MOCLDY    37  28  70 N5        30.07R
$$
                *** MANITOBA***

CITY           SKY/WX    TMP DP  RH WIND       PRES   REMARKS
BRANDON        MOCLDY    32  27  80 E15       30.13R WCI  22
DAUPHIN        PTCLDY    30  28  93 NE6       30.18R WCI  24
ISLAND LAKE    PTCLDY    18  10  73 N2        30.25R
PILOT MOUND      N/A     32  30  93 NE2         N/A
THE PAS        PTCLDY    19  14  79 CALM      30.23R
THOMPSON       CLEAR     10   9  92 NE5       30.29R WCI   2
WINNIPEG       PTCLDY    32  28  86 NE10      30.14R WCI  24
LYNN LAKE      CLEAR     12  10  92 SE6       30.26R WCI   3
CHURCHILL      CLEAR     -4  -8  84 N8        30.39R WCI -19
GILLAM         LGT SNOW  10   7  85 NE8       30.32R WCI  -1
$$
                ***SASKATCHEWAN***

CITY           SKY/WX    TMP DP  RH WIND       PRES   REMARKS
ESTEVAN        LGT RAIN  34  34 100 E14       30.06S WCI  24
KINDERSLEY     CLOUDY    37  34  87 E16       29.95S
LLOYDMINSTER   MOCLDY    32  32 100 E6        29.97F
PRINCE ALBERT  MOCLDY    30  25  80 E8        30.12R WCI  23
REGINA         CLOUDY    36  36 100 E13       30.07R FOG
YORKTON        CLOUDY    32  28  86 E9        30.13R WCI  24
N. BATTLEFORD  CLOUDY    34  34 100 E13       30.05R WCI  25
LA RONGE       PTCLDY    28  21  74 E6        30.16R WCI  22
SASKATOON      CLOUDY    36  32  87 E10       30.07R
SWIFT CURRENT  CLOUDY    37  34  87 SE10      29.96S
$$
NOTE: THESE ARE AUTOMATED STATIONS WITH LIMITED QUALITY CONTROL
      "FAIR" INDICATES FEW OR NO CLOUDS BELOW 12,000 FEET WITH NO
      SIGNIFICANT WEATHER AND/OR OBSTRUCTIONS TO VISIBILITY.
      SKY/WX - SKY CONDITION AND SIGNIFICANT WEATHER.
      TMP - AIR TEMPERATURE.    DP   - DEWPOINT TEMPERATURE.
      RH  - RELATIVE HUMIDITY.  PRES - PRESSURE.
      HX  - HEAT INDEX.         WCI  - WIND CHILL INDEX.
$




USA.gov is the U.S. government's official web portal to all federal, state and local government web resources and services.